San Diego Classic - Holiday Cup - Inventory

Station: INVENTORY - T Race

Distance: 10 Miles    

Release: 03-Jan-2020 14:10

Weather Release:    Arrival:

Wind at Release:     Wind at Arrival:

Temp at Release: °    Temp at Arrival: °

Lofts: 71

Birds: 75

Clocked: 47

Good Luck to Everyone!
Drops Pos Breeder Pigeon Name Color Sex Ent Arrival Speed To Win Elg PdRaceAvg Speed
1 Carlton Kroese-Crazy Al - CO 0421-AU19-BARK BB H 1 14:56:50.90 375.680 00:00:00 Yes
2 Carlton Kroese-Crazy Al - CO 0412-AU19-BARK BB H 2 14:56:52.30 375.493 00:00:01 Yes
3 Flying D Loft - TX 1034-AU19-FLYD Adl 173 /Foys 17191 BB H 1 14:57:26.40 370.995 00:00:35 Yes
4 Mike Belus - CA 0701-AU19-BPRC Im The One RC H 1 14:57:29.90 370.539 00:00:39 Yes
5 J & M Partridge Loft - CA 1641-AU19-PASO SLT H 1 14:57:50.00 367.944 00:00:59 Yes
6 Sandstrom Brothers Loft - MN 0064-AU19-SBL BC H 1 14:58:07.00 365.778 00:01:16 Yes
7 O & L De Vries - ON 3054-CU19-OL UNKN H 1 14:58:08.50 365.588 00:01:18 Yes
7 J. Smith & U. Ebright - CA 29513-AU19-JEDD BB H 1 14:58:08.50 365.588 00:01:18 Yes
9 Jenkins Racing - CA 15382-AU19-JEDD 4484 / 15194 BB H 1 14:58:09.80 365.423 00:01:19 Yes
10 Mike Belus - CA 0703-AU19-BPRC Daddy Please BC H 2 14:58:10.60 365.322 00:01:20 Yes
11 Thormod/Blankenship - NV 31890-AU19-AA Aphrodite BC H 1 14:58:11.10 365.259 00:01:20 Lost
12 Ed Dove - CA 0305-AU19-SD BC H 1 14:58:12.10 365.133 00:01:21 Yes
13 APC Loft - TX 19347-AU19-APC BB H 1 14:58:12.60 365.069 00:01:22 Yes
14 Eddie And Gene - CA 0035-AU19-GENE BC H 1 14:58:13.50 364.956 00:01:23 Yes
15 Hawaiian Express - CA 0006-AU19-HE BC H 1 14:58:14.00 364.893 00:01:23 Yes
15 John Fukumoto - HI 0725-AU19-HW BB H 1 14:58:14.00 364.893 00:01:23 Yes
17 B.C. Weaver - FL 20992-AU19-ARPU BLUE CHECK HEN BC H 1 14:58:14.60 364.817 00:01:24 Yes
18 Ron Pairan - OH 0462-AU19-LFO BB H 1 14:58:14.70 364.805 00:01:24 Yes
19 J. Smith & U. Ebright - CA 29510-AU19-JEDD DC H 2 14:58:15.30 364.729 00:01:24 Yes
20 Sandstrom Brothers Loft - MN 0052-AU19-SBL BC H 2 14:58:15.80 364.666 00:01:25 Yes
21 De La O -Lopez - CA 9128-AU19-COOK BBWF H 1 14:58:16.40 364.591 00:01:25 Yes
22 Humberto Munoz - EM 24975-MX19-MEX SIL H 1 14:58:16.90 364.528 00:01:26 Yes
23 Utaz Team - UT 1158-AU19-DUTC BB H 1 14:58:17.40 364.465 00:01:26 Yes
24 J & M Partridge Loft - CA 1719-AU19-PASO BBWF H 2 14:58:17.50 364.452 00:01:27 Yes
25 Mc Knight & Mellinger - CA 0747-AU19-JEDD BB H 1 14:58:18.30 364.352 00:01:27 Yes
26 J & M Partridge Loft - CA 1748-AU19-PASO DC H 3 14:58:20.40 364.088 00:01:29 Yes
27 Stephen Brothers - FL 4450-AU19-GHC BCPD H 1 14:58:21.10 364.000 00:01:30 Yes
28 Luis Gomez Loft - CA 0914-AU19-PAL BC H 1 14:58:22.80 363.787 00:01:32 Yes
29 3 Girls From Mexico - NV 4906-AU19-VITA DCWF H 1 14:58:23.60 363.686 00:01:33 Yes
30 Mike Belus - CA 0702-AU19-BPRC Rent Check RC H 3 14:58:24.30 363.599 00:01:33 Yes
31 Carney/Kravchuck - CT 2212-IF19-CC DC H 1 14:58:26.00 363.386 00:01:35 Yes
32 Relinski & Schilling - IN 5013-AU19-HAMM BC H 1 14:59:30.00 355.556 00:02:39 Yes
33 Ledet-Gutrz - LA 19039-AU19-LG BC H 1 15:00:35.30 347.906 00:03:44 Yes
34 Tim Brandon - CA 15812-AU19-JEDD BC H 1 15:01:37.60 340.909 00:04:47 Yes
35 Duane Gragg - CA 0985-AU19-KEYH BB H 1 15:01:46.00 339.987 00:04:55 Yes
36 Estes Loft - ID 6920-AU19-VK Rocket's Queen BB H 1 15:02:30.50 335.185 00:05:40 Yes
37 Kessler Family Loft - OR 0045-AU19-NRK Vk 502 BB H 1 15:02:34.90 334.717 00:05:44 Yes
38 Irma Derrick - CA 15844-AU19-JEDD DC H 1 15:02:36.60 334.537 00:05:46 Yes
39 Hi-Cal Connection - CA 0838-AU19-HICA BB H 1 15:02:37.10 334.484 00:05:46 Yes
40 Barry Venn - WY 63036-AU19-ARPU SIL H 1 15:02:42.50 333.913 00:05:52 Yes
41 Any Given Day-Quest - TX 19040-AU19-AGD BB H 1 15:06:54.40 309.278 00:10:04 Yes
42 Eddie And Gene - CA 0039-AU19-GENE BC H 2 15:07:00.10 308.763 00:10:09 Yes
43 John Fukumoto - HI 0714-AU19-HW BB H 2 15:07:12.60 307.639 00:10:22 Yes
44 Carlton Kroese-Crazy Al - CO 0418-AU19-BARK BB H 3 15:07:14.60 307.459 00:10:24 Yes
45 J & M Partridge Loft - CA 1644-AU19-PASO BC H 4 15:07:15.10 307.415 00:10:24 Yes
46 Utaz Team - UT 9362-AU19-SLI 7310-5028 BC H 2 15:07:17.00 307.245 00:10:26 Yes
47 Paco Loft - CA 1907-AU19-PACO DC H 1 15:07:17.80 307.173 00:10:27 Yes

There are 173 bird records

Note: These Race Results are unofficial and subject to change until verified by the Race Committee and declared final.